Weather History for Colby, KS

Change the Weather History Date:

Monday, December 17, 2012

  Actual Average (KGLD) Record (KGLD)
Temperature  
Mean Temperature 38 °F 29 °F  
Max Temperature 53 °F 42 °F 79 °F (1980)
Min Temperature 24 °F 17 °F -10 °F (1964)
Degree Days  
Heating Degree Days 26 36  
Month to date heating degree days 588  
Since 1 July heating degree days 1907  
Cooling Degree Days 0 0  
Month to date cooling degree days 0  
Year to date cooling degree days 941  
Moisture  
Dew Point 28 °F    
Average Humidity 79    
Maximum Humidity 100    
Minimum Humidity 38    
Precipitation  
Precipitation 0.00 in 0.01 in 0.18 in (1999)
Month to date precipitation 0.26  
Year to date precipitation 19.46  
Snow  
Snow 0.00 in 0.10 in - ()
Month to date snowfall 2.9  
Since 1 July snowfall 10.1  
Snow Depth -    
Sea Level Pressure  
Sea Level Pressure 29.68 in    
Wind  
Wind Speed 10 mph (WSW)    
Max Wind Speed 18 mph    
Max Gust Speed 23 mph    
Visibility 10 miles    
Events      
T = Trace of Precipitation, MM = Missing Value Source: NWS Daily Summary

Daily Weather History Graph

Daily Weather History Graph

Search for Another Location

Airport:

Trip Planner

Search our weather history database for the weather conditions in past years. The results will help you decide how hot, cold, wet, or windy it might be!

Date:

Astronomy

Dec. 17, 2012 Rise Set
Actual Time 7:58 AM CST 5:22 PM CST
Civil Twilight 7:28 AM CST 5:52 PM CST
Nautical Twilight 6:54 AM CST 6:26 PM CST
Astronomical Twilight 6:22 AM CST 6:59 PM CST
Moon 11:09 AM CST (12/17) 10:44 PM CST (12/17)
Length of Visible Light 10h 24m
Length of Day
9h 23m
Waxing Crescent, 25% of the Moon is Illuminated
Dec 17
Waxing Crescent
Dec 19
First Quarter
Dec 28
Full
Jan 4
Last Quarter
Jan 11
New

Hourly Weather History & Observations

Time (CST) Temp. Windchill Dew Point Humidity Pressure Visibility Wind Dir Wind Speed Gust Speed Precip Events Conditions
12:15 AM 30.2 °F 22.6 °F 30.2 °F 100% 29.79 in 10.0 mi West 8.1 mph - N/A   Clear
12:35 AM 28.4 °F 20.4 °F 28.4 °F 100% 29.79 in 10.0 mi West 8.1 mph - N/A   Clear
12:55 AM 28.4 °F 19.7 °F 28.4 °F 100% 29.79 in 10.0 mi West 9.2 mph - N/A   Clear
1:15 AM 28.4 °F 19.1 °F 28.4 °F 100% 29.78 in 10.0 mi West 10.4 mph - N/A   Scattered Clouds
1:35 AM 28.4 °F 19.1 °F 28.4 °F 100% 29.78 in 10.0 mi West 10.4 mph - N/A   Scattered Clouds
1:55 AM 28.4 °F 19.1 °F 28.4 °F 100% 29.78 in 10.0 mi West 10.4 mph - N/A   Clear
2:15 AM 28.4 °F 19.1 °F 26.6 °F 93% 29.78 in 10.0 mi West 10.4 mph - N/A   Scattered Clouds
2:35 AM 30.2 °F 19.8 °F 26.6 °F 86% 29.78 in 10.0 mi West 13.8 mph - N/A   Scattered Clouds
2:55 AM 30.2 °F 20.2 °F 26.6 °F 86% 29.78 in 10.0 mi West 12.7 mph - N/A   Clear
3:15 AM 28.4 °F 18.5 °F 26.6 °F 93% 29.78 in 10.0 mi West 11.5 mph - N/A   Clear
3:35 AM 28.4 °F 18.5 °F 26.6 °F 93% 29.78 in 10.0 mi West 11.5 mph - N/A   Clear
3:55 AM 28.4 °F 18.5 °F 26.6 °F 93% 29.78 in 10.0 mi West 11.5 mph - N/A   Clear
4:15 AM 28.4 °F 18.0 °F 26.6 °F 93% 29.77 in 10.0 mi West 12.7 mph - N/A   Clear
4:35 AM 28.4 °F 19.1 °F 24.8 °F 86% 29.77 in 10.0 mi West 10.4 mph - N/A   Clear
4:55 AM 26.6 °F 16.2 °F 24.8 °F 93% 29.77 in 10.0 mi West 11.5 mph - N/A   Scattered Clouds
5:15 AM 28.4 °F 19.1 °F 24.8 °F 86% 29.76 in 10.0 mi West 10.4 mph - N/A   Scattered Clouds
5:35 AM 28.4 °F 19.1 °F 26.6 °F 93% 29.76 in 10.0 mi West 10.4 mph - N/A   Mostly Cloudy
5:55 AM 30.2 °F 21.9 °F 26.6 °F 86% 29.76 in 10.0 mi West 9.2 mph - N/A   Overcast
6:15 AM 30.2 °F 21.3 °F 26.6 °F 86% 29.76 in 10.0 mi West 10.4 mph - N/A   Overcast
6:35 AM 28.4 °F 21.2 °F 26.6 °F 93% 29.76 in 10.0 mi West 6.9 mph - N/A   Mostly Cloudy
6:55 AM 26.6 °F 17.5 °F 24.8 °F 93% 29.75 in 10.0 mi West 9.2 mph - N/A   Scattered Clouds
7:15 AM 26.6 °F 19.1 °F 23.0 °F 86% 29.75 in 10.0 mi WSW 6.9 mph - N/A   Clear
7:35 AM 26.6 °F 18.2 °F 23.0 °F 86% 29.75 in 10.0 mi West 8.1 mph - N/A   Clear
7:55 AM 24.8 °F 16.9 °F 23.0 °F 93% 29.75 in 10.0 mi WSW 6.9 mph - N/A   Clear
8:15 AM 26.6 °F 18.2 °F 23.0 °F 86% 29.75 in 10.0 mi West 8.1 mph - N/A   Clear
8:35 AM 26.6 °F 19.1 °F 23.0 °F 86% 29.75 in 10.0 mi WSW 6.9 mph - N/A   Clear
8:55 AM 30.2 °F 23.4 °F 26.6 °F 86% 29.75 in 10.0 mi WSW 6.9 mph - N/A   Clear
9:15 AM 32.0 °F 28.7 °F 28.4 °F 87% 29.74 in 10.0 mi SW 3.5 mph - N/A   Clear
9:35 AM 32.0 °F 26.4 °F 30.2 °F 93% 29.73 in 10.0 mi SSW 5.8 mph - N/A   Scattered Clouds
10:15 AM 39.2 °F 33.0 °F 32.0 °F 75% 29.72 in 10.0 mi SSW 9.2 mph - N/A   Scattered Clouds
10:35 AM 39.2 °F 33.6 °F 32.0 °F 75% 29.71 in 10.0 mi SSW 8.1 mph - N/A   Scattered Clouds
10:55 AM 41.0 °F 34.7 °F 32.0 °F 70% 29.70 in 10.0 mi SSW 10.4 mph - N/A   Clear
11:15 AM 41.0 °F 34.3 °F 33.8 °F 76% 29.70 in 10.0 mi SSW 11.5 mph - N/A   Clear
11:55 AM 42.8 °F 34.8 °F 30.2 °F 61% 29.68 in 10.0 mi SW 17.3 mph - N/A   Mostly Cloudy
12:15 PM 42.8 °F 34.5 °F 32.0 °F 66% 29.67 in 10.0 mi SW 18.4 mph 21.9 mph N/A   Scattered Clouds
12:35 PM 42.8 °F 35.4 °F 32.0 °F 66% 29.65 in 10.0 mi SW 15.0 mph - N/A   Scattered Clouds
12:55 PM 42.8 °F 35.4 °F 32.0 °F 66% 29.64 in 10.0 mi SSW 15.0 mph - N/A   Overcast
1:15 PM 44.6 °F 37.8 °F 32.0 °F 61% 29.63 in 10.0 mi SW 15.0 mph - N/A   Scattered Clouds
1:35 PM 46.4 °F 39.2 °F 32.0 °F 57% 29.60 in 10.0 mi SW 18.4 mph - N/A   Clear
1:55 PM 50.0 °F - 32.0 °F 50% 29.60 in 10.0 mi SW 18.4 mph - N/A   Scattered Clouds
2:15 PM 50.0 °F - 30.2 °F 47% 29.59 in 10.0 mi SW 17.3 mph 23.0 mph N/A   Clear
2:35 PM 51.8 °F - 30.2 °F 44% 29.58 in 10.0 mi SSW 17.3 mph - N/A   Scattered Clouds
2:55 PM 51.8 °F - 28.4 °F 41% 29.57 in 10.0 mi SSW 16.1 mph 23.0 mph N/A   Clear
3:15 PM 51.8 °F - 28.4 °F 41% 29.57 in 10.0 mi SSW 15.0 mph 20.7 mph N/A   Clear
3:35 PM 53.6 °F - 28.4 °F 38% 29.57 in 10.0 mi SSW 15.0 mph - N/A   Clear
3:55 PM 53.6 °F - 28.4 °F 38% 29.56 in 10.0 mi SSW 12.7 mph - N/A   Clear
6:15 PM 44.6 °F 40.2 °F 28.4 °F 53% 29.57 in 10.0 mi South 8.1 mph - N/A   Mostly Cloudy
6:35 PM 41.0 °F 36.4 °F 28.4 °F 61% 29.57 in 10.0 mi SSW 6.9 mph - N/A   Scattered Clouds
6:55 PM 37.4 °F 31.4 °F 28.4 °F 70% 29.56 in 10.0 mi SSW 8.1 mph - N/A   Clear
7:15 PM 33.8 °F 26.4 °F 28.4 °F 81% 29.57 in 10.0 mi SW 9.2 mph - N/A   Clear
7:35 PM 35.6 °F 28.6 °F 28.4 °F 75% 29.57 in 10.0 mi SW 9.2 mph - N/A   Clear
7:55 PM 33.8 °F 27.7 °F 28.4 °F 81% 29.57 in 10.0 mi WSW 6.9 mph - N/A   Clear
8:15 PM 33.8 °F 27.7 °F 28.4 °F 81% 29.57 in 10.0 mi WSW 6.9 mph - N/A   Clear
8:35 PM 32.0 °F 27.5 °F 28.4 °F 87% 29.57 in 10.0 mi West 4.6 mph - N/A   Clear
8:55 PM 33.8 °F 27.0 °F 28.4 °F 81% 29.57 in 10.0 mi WSW 8.1 mph - N/A   Clear
9:15 PM 32.0 °F 24.8 °F 28.4 °F 87% 29.58 in 10.0 mi West 8.1 mph - N/A   Clear
9:55 PM 32.0 °F 24.2 °F 28.4 °F 87% 29.58 in 10.0 mi West 9.2 mph - N/A   Clear
10:15 PM 32.0 °F 24.8 °F 28.4 °F 87% 29.58 in 10.0 mi West 8.1 mph - N/A   Clear
10:35 PM 32.0 °F 24.8 °F 28.4 °F 87% 29.58 in 10.0 mi West 8.1 mph - N/A   Clear
10:55 PM 32.0 °F 24.2 °F 28.4 °F 87% 29.59 in 10.0 mi WSW 9.2 mph - N/A   Clear
11:15 PM 32.0 °F 24.2 °F 28.4 °F 87% 29.59 in 10.0 mi WSW 9.2 mph - N/A   Clear
11:35 PM 32.0 °F 23.0 °F 28.4 °F 87% 29.60 in 10.0 mi WSW 11.5 mph - N/A   Clear
11:55 PM 32.0 °F 25.6 °F 28.4 °F 87% 29.60 in 10.0 mi WSW 6.9 mph - N/A   Clear